Location: Unspecified
(0.0000°N, 0.0000°E)
Time: 02:25:45
(UTC+01:00)

ISS - All Passes

Search period start: 26 November 2014 00:00
Search period end: 06 December 2014 00:00
Orbit: 407 x 417 km, 51.6° (Epoch: 25 November)

Date Brightness Start Highest point End Pass type
(mag) Time Alt. Az. Time Alt. Az. Time Alt. Az.
26 Nov - 09:09:09 10° N 09:12:04 29° NE 09:15:00 10° ESE daylight
26 Nov - 20:44:49 10° S 20:47:14 19° SE 20:49:38 10° E visible
26 Nov - 22:22:05 10° W 22:23:40 13° NW 22:25:15 10° NNW night (unlit)
27 Nov - 08:20:46 10° NNE 08:22:13 12° NE 08:23:40 10° E daylight
27 Nov - 09:56:09 10° WNW 09:58:39 20° SW 10:01:10 10° S daylight
27 Nov - 21:30:49 10° WSW 21:33:46 30° NW 21:36:42 10° N visible
28 Nov - 09:05:30 10° NW 09:08:42 50° SW 09:11:56 10° SSE daylight
28 Nov - 20:40:29 10° SW 20:43:47 87° NW 20:47:04 10° NE visible
29 Nov - 08:15:27 10° NNW 08:18:40 54° NE 08:21:55 10° SE daylight
29 Nov - 19:50:41 10° SSW 19:53:42 32° SE 19:56:41 10° ENE visible
30 Nov - 07:25:59 10° N 07:28:32 21° NE 07:31:06 10° ESE daylight
30 Nov - 09:03:41 10° WSW 09:04:57 12° SW 09:06:14 10° SSW daylight
30 Nov - 19:01:43 10° SSE 19:03:29 14° SE 19:05:15 10° E daylight
30 Nov - 20:37:35 10° W 20:39:54 18° NW 20:42:12 10° N visible
01 Dec - 08:11:49 10° WNW 08:14:41 27° SW 08:17:34 10° S daylight
01 Dec - 19:46:26 10° SW 19:49:36 45° NW 19:52:45 10° NNE visible
02 Dec - 07:21:04 10° NW 07:24:20 78° SW 07:27:38 10° SSE daylight
02 Dec - 18:55:57 10° SSW 18:59:13 60° SE 19:02:27 10° NE daylight
03 Dec - 06:30:52 10° NNW 06:33:54 35° NE 06:36:57 10° ESE daylight
03 Dec - 18:06:03 10° S 18:08:43 22° SE 18:11:21 10° ENE daylight
03 Dec - 19:44:14 10° WNW 19:45:06 11° NW 19:45:57 10° NW visible
04 Dec - 05:41:28 10° NNE 05:43:21 14° NE 05:45:14 10° E visible
04 Dec - 07:17:32 10° W 07:19:44 17° SW 07:21:57 10° SSW daylight
04 Dec - 18:51:41 10° WSW 18:54:29 26° NW 18:57:16 10° N daylight
05 Dec - 06:25:57 10° NW 06:29:05 42° SW 06:32:13 10° SSE visible
05 Dec - 18:00:30 10° SW 18:03:47 74° NW 18:07:03 10° NNE daylight
